sat.trackr.live / text

‹ back to catalog

NANOFF B

NORAD 58755 · 2023-185S

PAYLOAD ACTIVE UNKNOWN

§ Identity

Operator
Country
GER
Launch date
2023-12-01
Launch site
AFWTR
Launch vehicle
Mass (kg)
RCS (m²)

External: N2YO · Heavens-Above · Gunter

§ Orbital elements

Epoch: 2026-05-25T03:53:22.867008Z

Period
95.23 min
Inclination
97.5271°
Eccentricity
0.0013023
Mean motion
15.12105877 rev/d
Perigee alt
520.8 km
Apogee alt
538.8 km
Semi-major
6,907.9 km
B*
1.6792e-4
RAAN
212.9603°
Arg perigee
31.6506°
Mean anomaly
328.5505°
Rev number
13,039

§ Raw data

NANOFF B1 58755U 23185S   26145.16207022  .00002832  00000+0  16792-3 0  99992 58755  97.5271 212.9603 0013023  31.6506 328.5505 15.12105877130397

JSON: /api/v1/satellites/58755 · /tle

For live sub-satellite position, see the globe view (requires WebGL).

§ Visibility from observer

Set your observer location to see the next 7 days of passes ≥ 10°. The values pass through the URL so the page stays shareable.

No JS? Fill the form by hand. The geolocation button needs JavaScript.

§ Radio — SatNOGS DB

ModeDescriptionDownlinkUplink
FMN CW/FM (F2A) Beacon 435.950 MHz
GMSK GMSK4k8 Telemetry 435.950 MHz
BPSK S-band telemetry 2.264 GHz
GMSK GMSK4k8 Telemetry (inactive) 435.950 MHz

4 transmitters · refreshed weekly from db.satnogs.org